THORAD AGENA D DEB, 4141

Orbit data source: Space-Track

THORAD AGENA D DEB, 4141 is space debris in LEO originally from a launch on Tue, 30 Sep 1969 UTC launched from the Air Force Western Test Range (AFWTR). Debris objects in space refer to the collection of defunct objects orbiting the Earth. Examples of debris include non-operational satellites, rocket bodies, and fragments generated from explosions, collisions, or faulty payload assembly.

Loading next visibility...
Identifier
4141, 1969-082AJ
Orbit
LEO
Country
Flag of USUS
Related business
Manufacturer
Unknown
Mission
Spacecraft
Bus & Motor
Unknown
Mass
Unknown
Launch date (UTC)
1969-09-30 (57 years ago)
Launch vehicle
Unknown
Launch site
Air Force Western Test Range (AFWTR)
Object type
Payload
Rocket body
Debris
Shape & HBR
Unknown shape, 0.1 m
Radar Cross Section
Small (<0.1 m²)

Expand to show TLE details & history
Last TLE update: 8 hours ago

TLE from 8 hours ago
0 THORAD AGENA D DEB
1 04141U 69082AJ  26093.91811630  .00014020  00000-0  15415-2 0  9999
2 04141  69.8756  29.9282 0036194 259.7985  99.9085 14.87249249973260
Epoch: 2026-04-03T22:02Z
TLE epoch observation values (Epoch: 2026-04-03T22:02:05.248Z)
Latitude
0.00001°
Longitude
-132.83902°
Altitude
613.377 km
Speed
7.55 km/s
True Right ascension
01h 59m 42s
True Declination
0° 00' 00"
Sunlit
Object was in daylight at epoch
Visualization orbit readout
Latitude
Unknown
Longitude
Unknown
Altitude
Unknown
Speed
Unknown
Apparent Right ascension
Unknown
Apparent Declination
Unknown
Sunlit
N/A
Visualization observer readout
Local Sidereal Time
11:48:50
Azimuth
Unknown
Elevation
Unknown
Doppler factor
Unknown
Orbital elements
Apogee altitude
629.779 km
Perigee altitude
579.233 km
Semi-major axis
6,982.643 km
Eccentricity
0.00362
Inclination
69.8756°
RAAN
29.9282°
Arg. of periapsis
259.7985°
True anomaly
100.31674°
Mean anomaly
99.9085°
Eccentric anomaly
100.11265°
Mean motion
3.71975 °/min
Orbital period
96.78 mins
BSTAR
0.0015415
Loading maneuver chart data...
Computing Atmospheric mass density...

Documentation

Showing up to 5 results
|